Houston Hull, TX

6:55 PM CDT on October 14, 2019 (GMT -0500)
Sugar Land Municipal-Hull

Weather History for KSGR - August, 2019

Change the Weather History Date:

Saturday, August 17, 2019

  Actual Average Record
Temperature  
Mean Temperature 85 °F -  
Max Temperature 96 °F 93 °F 104 °F (1948)
Min Temperature 77 °F 73 °F 63 °F (2004)
Cooling Degree Days 20    
Growing Degree Days 35 (Base 50)    
Moisture  
Dew Point 77 °F    
Average Humidity 78    
Maximum Humidity 100    
Minimum Humidity 52    
Precipitation  
Precipitation 0.04 in - - ()
Sea Level Pressure  
Sea Level Pressure 29.89 in    
Wind  
Wind Speed 7 mph (South)    
Max Wind Speed 17 mph    
Max Gust Speed 16 mph    
Visibility 10 miles    
Events Rain    
Averages and records for this station are not official NWS values.
T = Trace of Precipitation, MM = Missing Value Source: NWS Daily Summary

Daily Weather History Graph

Daily Weather History Graph

Search for Another Location

Airport or City:

Astronomy

Aug. 17, 2019 Rise Set
Actual Time 6:51 AM CDT 8:01 PM CDT
Civil Twilight 6:26 AM CDT 8:26 PM CDT
Nautical Twilight 5:57 AM CDT 8:55 PM CDT
Astronomical Twilight 5:26 AM CDT 9:26 PM CDT
Moon 9:37 PM CDT (8/17) 8:36 AM CDT (8/17)
Length of Visible Light 13h 59m
Length of Day
13h 09m
Waning Gibbous, 96% of the Moon is Illuminated
Aug 17
Waning Gibbous
Aug 23
Last Quarter
Aug 30
New
Sep 5
First Quarter
Sep 13
Full

Hourly Weather History & Observations

Time (CDT) Temp. Heat Index Dew Point Humidity Pressure Visibility Wind Dir Wind Speed Gust Speed Precip Events Conditions
12:53 AM 82.0 °F 91.0 °F 78.1 °F 88% 29.93 in 10.0 mi South 8.1 mph - N/A   Partly Cloudy
1:53 AM 80.1 °F 86.4 °F 78.1 °F 94% 29.93 in 10.0 mi South 4.6 mph - N/A   Clear
2:53 AM 79.0 °F - 78.1 °F 97% 29.93 in 10.0 mi Calm Calm - N/A   Clear
3:53 AM 78.1 °F - 78.1 °F 100% 29.91 in 10.0 mi Calm Calm - N/A   Clear
4:53 AM 79.0 °F - 78.1 °F 97% 29.89 in 10.0 mi SE 3.5 mph - N/A   Clear
5:53 AM 77.0 °F - 77.0 °F 100% 29.89 in 10.0 mi SSW 3.5 mph - N/A   Partly Cloudy
6:53 AM 77.0 °F - 77.0 °F 100% 29.89 in 10.0 mi Calm Calm - N/A   Clear
7:53 AM 81.0 °F 89.2 °F 79.0 °F 94% 29.91 in 10.0 mi South 4.6 mph - N/A   Clear
8:53 AM 86.0 °F 99.3 °F 79.0 °F 79% 29.92 in 10.0 mi SW 6.9 mph - N/A   Clear
9:53 AM 86.0 °F 98.3 °F 78.1 °F 77% 29.93 in 10.0 mi SSW 9.2 mph - N/A   Scattered Clouds
10:53 AM 90.0 °F 102.5 °F 77.0 °F 65% 29.92 in 10.0 mi SW 8.1 mph - N/A   Mostly Cloudy
11:53 AM 84.9 °F 96.6 °F 78.1 °F 80% 29.92 in 10.0 mi SW 6.9 mph - 0.00 in Rain Light Rain
12:32 PM 93.9 °F 106.9 °F 75.9 °F 56% 29.91 in 10.0 mi SW 9.2 mph - 0.00 in   Scattered Clouds
12:53 PM 93.0 °F 105.3 °F 75.9 °F 57% 29.90 in 10.0 mi SSW 10.4 mph 16.1 mph 0.00 in   Mostly Cloudy
1:53 PM 90.0 °F 102.5 °F 77.0 °F 65% 29.88 in 7.0 mi SSE 11.5 mph - 0.03 in Rain Light Rain
2:53 PM 93.9 °F 108.4 °F 77.0 °F 58% 29.86 in 10.0 mi South 11.5 mph - 0.01 in   Overcast
3:53 PM 93.0 °F 106.7 °F 77.0 °F 59% 29.84 in 10.0 mi SSE 12.7 mph - 0.00 in   Overcast
4:53 PM 93.9 °F 104.0 °F 73.9 °F 52% 29.83 in 10.0 mi SSE 16.1 mph - N/A   Mostly Cloudy
5:53 PM 91.9 °F 101.3 °F 73.9 °F 55% 29.82 in 10.0 mi South 17.3 mph - N/A   Clear
6:53 PM 91.0 °F 101.6 °F 75.0 °F 59% 29.83 in 10.0 mi South 12.7 mph - N/A   Clear
7:53 PM 87.1 °F 96.3 °F 75.0 °F 67% 29.83 in 10.0 mi SSE 16.1 mph - N/A   Clear
8:53 PM 84.0 °F 94.8 °F 78.1 °F 82% 29.85 in 10.0 mi South 10.4 mph - N/A   Clear
9:53 PM 82.9 °F 91.8 °F 77.0 °F 82% 29.86 in 10.0 mi South 8.1 mph - N/A   Clear
10:53 PM 82.0 °F 90.2 °F 77.0 °F 85% 29.88 in 10.0 mi SSE 6.9 mph - N/A   Clear
11:53 PM 81.0 °F 88.6 °F 78.1 °F 91% 29.90 in 10.0 mi SSE 6.9 mph - N/A   Clear